TimeEDT,TemperatureF,Dew PointF,Humidity,Sea Level PressureIn,VisibilityMPH,Wind Direction,Wind SpeedMPH,Gust SpeedMPH,PrecipitationIn,Events,Conditions,WindDirDegrees,DateUTC
12:15 AM,53.6,42.8,67,30.25,10.0,East,6.9,-,N/A,,Clear,80,2012-10-09 04:15:00
12:35 AM,55.4,44.6,67,30.27,10.0,East,5.8,-,N/A,,Mostly Cloudy,100,2012-10-09 04:35:00
12:55 AM,53.6,44.6,72,30.26,10.0,East,6.9,-,N/A,,Overcast,90,2012-10-09 04:55:00
1:15 AM,53.6,44.6,72,30.27,10.0,East,10.4,-,N/A,,Mostly Cloudy,100,2012-10-09 05:15:00
1:35 AM,53.6,46.4,77,30.26,10.0,East,9.2,-,N/A,,Overcast,90,2012-10-09 05:35:00
1:55 AM,53.6,46.4,77,30.26,10.0,East,11.5,16.1,N/A,,Overcast,80,2012-10-09 05:55:00
2:15 AM,53.6,46.4,77,30.24,10.0,East,10.4,16.1,N/A,,Overcast,80,2012-10-09 06:15:00
2:55 AM,55.4,46.4,72,30.22,10.0,ENE,9.2,17.3,N/A,,Mostly Cloudy,70,2012-10-09 06:55:00
3:15 AM,55.4,46.4,72,30.22,10.0,East,11.5,17.3,N/A,,Overcast,80,2012-10-09 07:15:00
3:55 AM,55.4,48.2,77,30.22,10.0,ENE,11.5,19.6,N/A,,Overcast,70,2012-10-09 07:55:00
4:15 AM,55.4,46.4,72,30.22,10.0,East,12.7,18.4,N/A,,Overcast,90,2012-10-09 08:15:00
4:35 AM,55.4,48.2,77,30.22,10.0,East,11.5,16.1,N/A,,Overcast,80,2012-10-09 08:35:00
4:55 AM,55.4,48.2,77,30.22,10.0,ENE,13.8,19.6,N/A,,Overcast,60,2012-10-09 08:55:00
5:15 AM,53.6,50.0,88,30.22,6.0,ENE,13.8,19.6,N/A,,Mostly Cloudy,60,2012-10-09 09:15:00
5:35 AM,53.6,50.0,88,30.22,9.0,ENE,13.8,20.7,N/A,,Overcast,60,2012-10-09 09:35:00
6:16 AM,55.4,48.2,77,30.22,10.0,East,15.0,23.0,N/A,,Overcast,80,2012-10-09 10:16:00
6:35 AM,55.4,48.2,77,30.22,10.0,East,10.4,21.9,N/A,,Overcast,80,2012-10-09 10:35:00
6:55 AM,55.4,48.2,77,30.21,10.0,ENE,10.4,20.7,N/A,,Overcast,70,2012-10-09 10:55:00
7:15 AM,55.4,50.0,82,30.20,10.0,ENE,16.1,24.2,N/A,,Overcast,70,2012-10-09 11:15:00
7:55 AM,55.4,51.8,88,30.22,10.0,NE,13.8,23.0,N/A,,Overcast,50,2012-10-09 11:55:00
8:15 AM,55.4,51.8,88,30.22,8.0,ENE,15.0,24.2,N/A,,Overcast,60,2012-10-09 12:15:00
8:35 AM,55.4,51.8,88,30.22,2.5,ENE,12.7,24.2,N/A,,Overcast,60,2012-10-09 12:35:00
8:55 AM,55.4,51.8,88,30.22,3.0,ENE,15.0,25.3,N/A,,Overcast,60,2012-10-09 12:55:00
9:15 AM,55.4,51.8,88,30.21,6.0,ENE,19.6,25.3,N/A,,Overcast,60,2012-10-09 13:15:00
9:35 AM,55.4,51.8,88,30.23,5.0,ENE,18.4,27.6,N/A,,Overcast,60,2012-10-09 13:35:00
9:55 AM,55.4,51.8,88,30.22,5.0,ENE,17.3,26.5,N/A,,Overcast,70,2012-10-09 13:55:00
10:15 AM,55.4,51.8,88,30.22,10.0,ENE,18.4,26.5,N/A,,Overcast,70,2012-10-09 14:15:00
10:35 AM,57.2,51.8,82,30.21,10.0,ENE,15.0,26.5,N/A,,Overcast,60,2012-10-09 14:35:00
10:55 AM,57.2,51.8,82,30.21,10.0,ENE,15.0,24.2,N/A,,Overcast,60,2012-10-09 14:55:00
11:15 AM,55.4,51.8,88,30.20,10.0,ENE,19.6,25.3,N/A,,Overcast,60,2012-10-09 15:15:00
11:35 AM,57.2,51.8,82,30.19,10.0,ENE,16.1,26.5,N/A,,Overcast,60,2012-10-09 15:35:00
11:55 AM,57.2,51.8,82,30.19,10.0,NE,16.1,27.6,N/A,,Overcast,50,2012-10-09 15:55:00
12:15 PM,57.2,51.8,82,30.18,10.0,ENE,17.3,24.2,N/A,,Mostly Cloudy,60,2012-10-09 16:15:00
12:35 PM,57.2,51.8,82,30.19,10.0,ENE,15.0,26.5,N/A,,Overcast,60,2012-10-09 16:35:00
1:35 PM,57.2,51.8,82,30.15,10.0,ENE,16.1,25.3,N/A,,Overcast,60,2012-10-09 17:35:00
1:55 PM,57.2,51.8,82,30.15,10.0,ENE,18.4,25.3,N/A,,Overcast,60,2012-10-09 17:55:00
2:15 PM,57.2,51.8,82,30.15,10.0,NE,16.1,23.0,N/A,,Overcast,50,2012-10-09 18:15:00
2:35 PM,57.2,51.8,82,30.14,10.0,ENE,16.1,24.2,N/A,,Overcast,60,2012-10-09 18:35:00
2:55 PM,57.2,51.8,82,30.14,10.0,NE,13.8,23.0,N/A,,Overcast,50,2012-10-09 18:55:00
3:15 PM,57.2,51.8,82,30.14,10.0,ENE,16.1,25.3,N/A,,Overcast,60,2012-10-09 19:15:00
3:35 PM,57.2,51.8,82,30.14,10.0,NE,13.8,24.2,N/A,,Overcast,50,2012-10-09 19:35:00
3:55 PM,57.2,51.8,82,30.14,10.0,NE,15.0,24.2,N/A,,Overcast,50,2012-10-09 19:55:00
4:15 PM,57.2,51.8,82,30.13,10.0,NE,15.0,24.2,N/A,,Overcast,50,2012-10-09 20:15:00
4:35 PM,57.2,51.8,82,30.13,10.0,NE,15.0,21.9,N/A,,Overcast,50,2012-10-09 20:35:00
4:55 PM,57.2,51.8,82,30.13,10.0,NE,12.7,24.2,N/A,,Overcast,50,2012-10-09 20:55:00
5:15 PM,57.2,51.8,82,30.13,10.0,NE,13.8,21.9,N/A,,Overcast,50,2012-10-09 21:15:00
5:35 PM,57.2,51.8,82,30.13,10.0,NE,13.8,24.2,N/A,,Overcast,50,2012-10-09 21:35:00
5:55 PM,57.2,51.8,82,30.13,10.0,NE,17.3,24.2,N/A,,Overcast,50,2012-10-09 21:55:00
6:15 PM,57.2,51.8,82,30.13,10.0,NE,15.0,24.2,N/A,,Overcast,50,2012-10-09 22:15:00
6:35 PM,57.2,51.8,82,30.13,10.0,NE,15.0,20.7,N/A,,Overcast,50,2012-10-09 22:35:00
6:55 PM,55.4,51.8,88,30.14,10.0,NE,15.0,21.9,N/A,,Overcast,50,2012-10-09 22:55:00
7:15 PM,55.4,51.8,88,30.13,10.0,NE,15.0,20.7,N/A,,Overcast,50,2012-10-09 23:15:00
7:35 PM,55.4,51.8,88,30.13,10.0,NE,13.8,20.7,N/A,,Overcast,50,2012-10-09 23:35:00
7:55 PM,55.4,50.0,82,30.13,10.0,NE,13.8,20.7,N/A,,Overcast,40,2012-10-09 23:55:00
8:15 PM,55.4,50.0,82,30.13,10.0,NE,12.7,26.5,N/A,,Overcast,40,2012-10-10 00:15:00
8:35 PM,55.4,50.0,82,30.14,10.0,NE,11.5,21.9,N/A,,Overcast,50,2012-10-10 00:35:00
8:55 PM,55.4,50.0,82,30.14,10.0,NE,13.8,23.0,N/A,,Overcast,50,2012-10-10 00:55:00
9:15 PM,55.4,50.0,82,30.13,10.0,NE,10.4,17.3,N/A,,Overcast,50,2012-10-10 01:15:00
9:35 PM,55.4,50.0,82,30.12,10.0,ENE,15.0,21.9,N/A,,Overcast,60,2012-10-10 01:35:00
9:55 PM,55.4,50.0,82,30.13,10.0,NE,12.7,21.9,N/A,,Overcast,50,2012-10-10 01:55:00
10:15 PM,55.4,50.0,82,30.13,10.0,ENE,13.8,20.7,N/A,,Overcast,60,2012-10-10 02:15:00
10:35 PM,55.4,50.0,82,30.13,10.0,NE,10.4,18.4,N/A,,Overcast,50,2012-10-10 02:35:00
10:55 PM,55.4,50.0,82,30.13,10.0,ENE,8.1,19.6,N/A,,Overcast,60,2012-10-10 02:55:00
11:15 PM,55.4,50.0,82,30.12,10.0,ENE,10.4,18.4,N/A,,Overcast,60,2012-10-10 03:15:00
11:35 PM,55.4,51.8,88,30.11,10.0,ENE,12.7,18.4,N/A,,Overcast,60,2012-10-10 03:35:00
11:55 PM,55.4,51.8,88,30.11,10.0,ENE,13.8,20.7,N/A,,Overcast,60,2012-10-10 03:55:00